GFSNW_850_dewp_276.txt.gz
Dewpoint
1 1 1 2 4 5 7 7 8 6 6 7 6 6 4 3 4 4 4 4 5 4 5 5 5 2 3 -0 1 -0 -1 5 8 3 -1 -3 -2 1 2 11 7 8 11 8
1 1 1 2 4 5 6 7 7 8 7 7 7 6 6 6 5 4 4 4 4 3 7 9 7 3 4 4 4 3 1 7 10 10 4 2 3 0 1 3 5 8 12 6
0 1 1 2 4 6 5 7 7 8 6 6 6 7 7 7 6 4 3 4 3 6 9 5 7 8 5 3 3 3 5 3 8 12 9 5 4 2 2 5 11 8 8 4
0 -0 2 2 3 6 6 6 7 6 7 7 7 6 6 7 6 5 4 5 5 5 7 8 7 8 6 4 2 4 4 5 7 7 5 4 5 4 5 4 4 7 5 4
0 -0 1 2 3 5 6 7 6 6 6 6 7 6 7 7 6 5 7 6 5 5 6 5 5 7 10 5 3 4 4 8 7 10 4 3 5 4 6 3 3 2 1 2
-0 -0 1 1 3 3 6 6 6 6 6 6 7 7 6 7 5 5 5 5 5 5 3 3 4 5 5 6 5 6 6 7 8 9 4 3 6 4 2 1 0 1 4 2
0 1 0 1 1 3 6 6 6 6 7 7 7 5 5 6 6 7 5 5 6 4 3 4 4 4 4 4 4 4 7 6 9 10 6 11 4 0 -0 0 0 -0 -0 -1
-1 0 1 1 1 2 5 6 6 6 7 7 6 5 6 5 6 7 5 4 4 3 3 6 5 5 5 5 4 5 5 7 10 11 9 5 1 0 0 1 1 -1 -0 -1
-1 0 1 0 0 1 4 6 6 6 6 7 5 6 6 8 8 8 8 7 5 5 6 7 8 8 5 5 4 2 4 5 10 10 9 7 1 -1 -2 -2 2 -3 -2 -0
-2 0 1 1 -1 1 3 4 5 6 6 6 6 7 7 7 7 8 8 8 8 5 8 9 8 7 2 5 6 7 8 9 11 10 11 8 -0 -2 -2 4 5 -1 -1 -2
-2 0 0 1 -0 0 2 4 6 5 5 6 6 7 8 7 7 7 7 7 6 8 8 8 7 6 4 3 3 5 8 9 9 9 10 9 0 -1 2 3 -0 -1 -2 -2
-2 -0 0 0 1 -0 1 4 5 5 5 5 5 6 7 8 7 6 7 6 6 7 7 7 5 5 4 4 7 3 7 5 8 6 7 2 1 1 -1 1 1 0 -1 -2
-2 -0 0 0 0 -0 0 3 4 5 4 4 5 6 5 6 8 7 6 6 5 5 4 5 6 5 3 7 4 4 3 2 6 5 3 2 1 0 -0 -0 0 -0 -1 -1
-2 -0 -0 0 1 0 1 2 4 5 4 2 3 4 6 6 4 6 7 7 6 5 5 6 8 7 2 5 4 4 2 2 4 5 2 1 1 0 0 0 -0 -1 -1 -2
-2 -0 -0 -1 1 0 1 3 5 4 3 2 2 4 4 5 5 5 7 6 7 6 7 7 7 3 3 3 3 4 0 3 6 7 2 3 1 1 1 0 -1 -2 -1 -1
-1 -1 -0 -1 0 1 1 4 5 4 3 2 3 2 4 5 6 6 6 6 6 5 4 5 2 5 4 7 5 1 0 -1 -1 2 1 1 0 -1 -1 -1 -0 -0 -2 -3
-1 -1 -1 -1 0 1 1 1 3 5 3 2 1 1 3 5 5 5 5 5 5 5 4 4 4 4 4 6 5 0 -0 -1 -1 -1 -1 -1 -0 -1 -1 -0 -1 -2 -3 -2
-2 -1 -1 -1 -0 0 0 1 2 5 3 1 2 1 2 4 5 4 5 4 4 5 5 4 4 4 4 6 1 1 -1 -1 -1 -1 -1 -0 -1 -1 -2 -1 -3 -3 -3 -4
-4 -4 -1 -1 -1 -0 0 1 2 4 2 1 2 3 3 3 3 3 4 4 5 3 5 4 3 4 5 2 0 -2 -1 -1 -1 -2 -2 -2 -2 -3 -3 -5 -5 -5 -5 -4
-4 -1 -1 -1 -1 0 1 1 1 2 1 3 3 2 3 3 3 3 3 2 4 4 3 0 2 3 0 -1 -2 -2 -3 -4 -3 -3 -4 -3 -3 -5 -4 -4 -4 -4 -4 -3
-2 -1 -1 -1 -0 1 0 -1 0 -1 1 2 2 2 3 2 3 3 2 4 3 3 3 3 2 1 0 -2 -2 -4 -4 -4 -4 -5 -4 -4 -4 -4 -4 -4 -4 -4 -4 -4
-1 -1 -1 -0 -1 -1 0 1 0 1 3 3 2 2 1 0 -0 2 1 2 3 2 0 3 2 -1 -4 -3 -3 -3 -4 -5 -6 -5 -4 -4 -5 -5 -4 -4 -5 -4 -4 -3
-1 -1 -0 -2 -1 1 2 2 2 4 3 1 1 3 1 0 -0 1 -0 1 3 0 2 2 0 -5 -4 -4 -3 -4 -5 -4 -5 -6 -6 -5 -5 -4 -7 -4 -5 -5 -5 -6
-1 -1 0 -0 0 1 1 1 1 -0 1 1 1 1 1 -1 1 1 0 -1 -0 2 1 -0 1 -4 -4 -5 -6 -5 -5 -5 -6 -6 -5 -4 -5 -4 -4 -10 -10 -10 -9 -8
-1 -0 0 1 -0 0 -1 -1 -1 1 1 0 -0 -1 -1 1 1 -1 -2 0 1 -1 -2 0 -2 -4 -5 -5 -5 -5 -6 -5 -5 -5 -5 -5 -5 -9 -11 -12 -11 -11 -9 -6
-1 -1 -0 -1 1 2 1 1 1 1 -1 -2 -3 0 1 -2 -1 -1 1 -1 -1 -3 -2 -3 -3 -5 -6 -5 -5 -6 -6 -5 -5 -5 -4 -4 -4 -8 -10 -11 -10 -9 -8 -7
-1 -0 -1 -0 0 1 1 1 1 -1 -2 1 1 -1 -3 -2 -2 -3 -3 -1 0 -2 -3 -3 -3 -6 -6 -5 -5 -5 -5 -4 -4 -4 -5 -6 -5 -7 -9 -9 -8 -6 -6 -5

GFSNW_850_dewp_279.txt.gz
Dewpoint
-4 -3 -2 -0 -0 0 1 2 4 4 7 8 7 8 6 3 3 3 4 5 5 6 6 7 7 5 4 2 3 -2 1 7 8 6 4 -2 -1 -2 0 9 7 9 9 8
-3 -2 -2 -1 -0 1 1 2 4 5 8 8 8 7 7 4 3 3 3 5 5 5 7 8 8 7 5 4 4 4 2 9 10 9 6 3 1 2 -1 5 8 8 10 9
-3 -2 -1 -0 0 1 2 2 6 7 7 7 6 7 7 6 4 4 4 5 5 6 7 8 8 9 5 4 4 4 4 8 9 11 9 9 8 4 2 7 8 9 8 8
-3 -2 -1 1 1 1 1 1 5 4 7 7 5 5 5 6 6 5 4 5 5 5 9 10 9 8 9 5 3 3 6 7 9 9 8 9 8 7 7 8 7 8 7 7
-3 -1 -1 -1 1 0 1 1 4 4 5 6 5 6 6 6 5 6 7 6 5 5 6 8 11 10 8 7 4 6 5 8 9 8 8 8 7 7 6 6 6 6 5 5
-2 -1 -1 -1 0 0 0 1 3 4 5 6 6 6 6 7 5 5 5 6 6 6 5 5 5 6 6 7 6 7 7 8 9 11 8 8 9 6 5 7 6 3 5 3
-2 -1 0 -0 1 0 -0 1 2 5 5 6 6 5 6 6 5 5 5 5 6 5 4 3 4 5 6 6 7 6 8 7 8 8 10 11 6 3 2 3 3 0 0 0
-3 -1 -1 -1 0 0 0 1 1 5 5 5 6 6 7 6 5 5 5 5 5 5 4 6 7 6 5 7 8 6 7 8 8 8 9 7 5 3 1 1 1 -1 -0 -1
-4 -3 -2 -1 0 0 0 0 0 2 5 6 5 7 7 7 7 6 8 7 5 5 7 7 7 7 6 7 6 6 6 7 7 7 8 9 6 2 -1 -1 3 -1 1 -0
-7 -4 -2 -1 1 0 0 0 1 1 6 4 5 6 7 6 7 7 8 8 8 7 8 7 6 6 4 7 7 8 8 7 8 6 6 7 3 -1 -3 1 1 0 -1 -2
-7 -5 -3 -1 0 1 1 -0 -1 1 6 6 6 6 5 6 6 7 8 8 7 7 7 7 6 7 5 5 5 7 8 7 7 7 7 8 3 -1 1 2 -1 -2 -2 -2
-6 -6 -2 -0 0 0 1 0 1 2 5 5 6 6 6 6 6 6 8 7 7 7 7 7 6 6 5 4 7 4 7 6 7 7 6 4 2 0 1 0 -0 -1 -2 -1
-6 -5 -1 -0 0 0 1 -0 1 3 5 5 5 6 7 7 7 6 7 7 7 7 5 6 7 5 5 5 6 6 4 3 5 4 3 4 1 1 1 -0 0 -0 -1 -1
-6 -3 -2 -0 -0 0 1 0 1 1 4 3 3 5 6 6 7 7 7 6 7 7 6 7 7 6 4 5 4 5 5 4 5 5 3 2 1 -0 -0 -0 -0 -0 -1 -1
-6 -2 -2 -0 -0 0 1 0 1 2 4 2 3 4 5 6 6 6 8 7 7 7 7 7 8 6 4 4 4 4 2 4 5 5 3 3 2 1 0 0 0 -0 -1 -1
-5 -2 -1 -0 -0 -0 0 0 -0 2 4 3 3 3 4 5 6 5 5 7 7 7 7 7 7 6 5 5 5 3 0 0 1 3 1 2 2 1 0 -1 -1 -0 -1 -2
-5 -2 -1 -1 -1 -1 0 0 1 1 4 3 1 2 4 5 6 6 6 7 7 6 6 6 6 6 6 4 6 2 1 1 0 1 1 1 1 0 -0 -1 -0 -1 -2 -3
-4 -2 -1 -1 -1 -1 0 0 0 0 3 3 1 1 2 4 4 4 5 5 5 6 6 6 6 5 4 4 3 2 0 -0 -0 -1 0 -0 -1 -0 -1 -1 -1 -3 -3 -4
-2 -3 -3 -1 -1 -0 0 0 0 1 2 1 1 3 3 4 4 4 4 4 4 5 4 5 4 5 4 4 2 1 1 0 -1 -1 -1 -0 -0 -1 -2 -3 -5 -5 -5 -5
-3 -3 -1 -1 -2 -1 -0 1 1 0 2 2 2 2 3 3 3 3 3 3 3 3 4 3 3 3 3 1 1 0 -1 -1 -0 -1 -2 -2 -2 -2 -4 -5 -5 -4 -4 -4
-2 -1 -1 -2 -0 -0 0 -0 0 -1 1 2 2 2 3 3 2 3 3 3 3 4 3 2 2 2 1 1 -1 -2 -2 -2 -3 -3 -3 -3 -3 -4 -4 -4 -5 -5 -5 -7
-3 -1 -1 -2 -1 -1 -0 0 -0 1 2 3 3 2 1 0 0 2 3 3 3 4 2 2 2 1 -3 -2 -0 -1 -3 -4 -4 -4 -4 -4 -4 -4 -4 -4 -4 -7 -11 -9
-2 -1 -1 -1 -1 -1 1 1 1 2 1 2 2 2 -0 -0 -0 1 1 2 2 0 0 2 1 -1 -4 -4 -3 -1 -2 -3 -4 -5 -5 -4 -4 -5 -5 -5 -8 -8 -10 -9
-1 -1 -1 -1 -0 -1 1 0 0 0 2 2 1 1 1 -0 1 1 1 1 1 1 2 1 -0 -3 -4 -4 -3 -2 -3 -5 -5 -5 -5 -5 -6 -5 -6 -9 -9 -10 -10 -10
-1 -1 -1 -1 -2 0 -0 -0 0 1 2 1 -0 0 -0 1 0 -0 0 1 2 1 1 -0 -3 -5 -4 -4 -3 -4 -5 -5 -5 -6 -6 -6 -5 -5 -6 -8 -10 -11 -11 -11
-1 -1 -0 -0 -0 -0 1 1 2 2 1 -1 -2 1 0 0 0 -0 0 1 1 -0 -2 -4 -7 -4 -5 -4 -5 -5 -5 -5 -6 -6 -5 -5 -5 -5 -6 -9 -11 -11 -9 -9
-1 -2 -1 -0 -0 1 1 1 2 1 -1 1 1 -0 -1 -1 -0 -0 -0 -0 -1 -3 -4 -3 -5 -3 -5 -5 -5 -5 -5 -5 -5 -5 -5 -5 -5 -5 -6 -8 -9 -7 -7 -7

GFSNW_850_dewp_282.txt.gz
Dewpoint
-7 -6 -6 -6 -3 -1 -0 0 2 1 -1 4 4 6 6 5 5 4 2 5 5 6 6 7 6 6 2 3 0 1 1 3 4 2 3 3 -2 -2 -1 6 4 9 7 7
-6 -5 -4 -3 -3 -2 -0 1 1 0 0 3 3 5 5 6 5 5 3 5 5 5 6 7 7 7 4 3 4 2 4 7 8 7 5 4 4 0 -1 4 6 7 9 8
-5 -4 -3 -2 -2 -1 1 1 2 0 2 2 3 3 6 7 5 5 3 3 4 5 6 6 7 8 6 4 4 3 5 8 6 7 5 7 8 8 5 5 7 8 8 7
-5 -4 -3 -3 -1 -0 1 1 0 0 2 2 2 2 5 6 7 4 3 3 4 4 7 7 8 8 8 5 4 3 5 7 8 7 8 9 9 7 8 8 7 7 7 6
-4 -4 -3 -2 -1 0 1 1 0 0 1 0 2 2 3 6 6 6 5 4 3 4 5 6 8 8 8 7 4 5 5 8 8 8 9 9 9 7 6 7 7 8 6 6
-4 -4 -3 -3 -1 -0 1 0 0 1 1 1 3 4 2 6 5 5 4 4 4 5 5 4 6 5 6 6 6 7 7 9 8 9 8 9 10 7 7 6 6 6 9 6
-4 -3 -3 -2 -1 0 0 0 1 0 1 2 2 2 4 5 6 6 4 4 5 3 4 4 5 6 8 8 7 6 8 8 7 8 8 11 7 5 4 6 5 4 1 2
-6 -4 -3 -2 -1 -1 0 1 -0 -1 1 0 1 3 4 4 4 6 4 4 4 4 5 9 9 8 10 10 9 8 6 7 8 9 9 7 6 5 5 4 3 2 1 1
-8 -8 -4 -3 -2 -2 -0 0 0 -0 -1 -1 -1 3 5 5 6 6 6 4 5 5 8 8 9 9 9 10 9 7 7 6 6 5 8 10 6 3 -0 -1 3 -1 0 1
-11 -8 -8 -6 -4 -2 -1 0 0 -0 -1 -1 -1 1 4 4 5 6 6 7 8 6 8 9 8 9 6 10 9 9 8 6 8 5 6 6 4 0 -1 3 4 -0 -0 -1
-14 -12 -8 -8 -7 -2 -0 0 1 1 -1 -0 -1 0 5 4 6 7 6 8 8 8 9 9 7 6 5 6 6 8 8 8 7 5 7 8 2 -1 3 1 0 0 -2 -1
-12 -14 -10 -8 -7 -2 0 0 1 1 0 0 1 2 6 6 6 6 8 6 7 7 8 8 6 6 4 5 8 5 7 6 7 7 6 4 2 -1 -1 -1 -1 -2 -2 -1
-10 -12 -11 -8 -3 -1 -0 0 0 1 0 1 2 3 6 6 5 5 8 7 7 7 6 7 6 5 4 5 6 6 4 4 5 5 4 3 1 0 -1 -2 -2 -1 -1 -1
-11 -10 -8 -6 -2 -1 -0 0 0 1 -0 1 3 3 4 6 7 7 7 8 8 7 7 7 7 5 4 5 5 6 5 4 5 4 3 3 2 1 0 0 -1 -1 -1 -1
-9 -10 -8 -4 -2 -0 -0 -0 1 1 -0 0 2 4 5 6 5 6 7 7 7 8 8 7 8 6 5 5 4 4 4 5 5 5 3 3 2 1 -0 0 -0 -1 -1 -1
-7 -9 -8 -3 -2 -0 -1 1 -1 0 0 -0 2 3 5 5 5 6 5 7 8 7 7 7 8 7 5 5 5 2 2 2 2 3 2 1 0 0 -0 0 -0 -1 -1 -2
-6 -8 -5 -2 -1 -0 -1 -0 1 0 -0 1 1 2 4 6 6 6 6 4 6 7 6 6 7 7 7 5 6 3 1 2 2 1 2 2 1 0 -0 -0 -1 -1 -2 -3
-6 -6 -4 -2 -2 -1 -1 -2 -1 -0 -0 1 1 2 3 5 5 4 6 5 5 5 6 6 6 6 6 6 4 2 1 0 2 2 1 1 1 -1 -1 -1 -1 -2 -3 -4
-5 -4 -2 -2 -1 -1 -2 -1 0 0 0 0 1 3 4 4 4 4 5 4 3 5 5 6 5 6 6 5 3 3 0 0 0 2 1 1 -0 -1 -1 -1 -2 -2 -4 -4
-4 -2 -2 -1 -1 -1 -1 0 0 -0 1 1 1 2 3 3 3 3 3 3 3 3 4 5 5 5 3 2 2 1 1 -1 -1 -0 -0 -1 -1 -2 -3 -2 -3 -3 -5 -5
-2 -2 -1 -2 -2 -1 -0 -0 -1 -1 0 0 3 2 3 3 3 3 3 2 3 4 4 4 3 3 2 2 1 1 0 -0 -0 -1 -1 -1 -1 -3 -3 -4 -5 -5 -5 -7
-3 -3 -2 -2 -2 -1 -1 -1 -0 -0 1 1 2 3 2 3 2 2 2 3 3 4 3 2 3 1 -1 2 1 0 -0 -2 -2 -1 -2 -3 -2 -2 -3 -4 -5 -6 -11 -15
-3 -3 -1 -1 -2 -2 -0 1 1 2 1 2 2 2 1 2 2 2 2 3 3 1 3 3 2 -1 -1 1 -1 -2 -3 -3 -3 -3 -4 -4 -4 -4 -4 -5 -6 -11 -14 -13
-2 -2 -2 -2 -1 -2 -0 -0 0 -1 2 2 2 1 1 1 1 1 3 2 2 3 3 2 -0 -2 -3 -3 -1 -2 -2 -4 -4 -4 -4 -4 -4 -4 -5 -6 -8 -13 -11 -11
-2 -2 -1 -1 -3 -2 -0 -0 -1 -1 2 2 0 -0 -1 0 1 -0 1 1 2 2 1 -0 -3 -4 -4 -4 -3 -1 -1 -2 -4 -4 -4 -4 -4 -5 -5 -7 -11 -11 -11 -12
-1 -1 -2 -2 -0 -2 -0 0 1 1 2 1 0 1 2 1 -0 0 0 1 1 0 -1 -4 -6 -5 -5 -4 -3 -3 -1 -2 -4 -5 -4 -5 -5 -6 -8 -9 -10 -11 -13 -13
-2 -2 -1 -1 -1 -0 0 1 2 2 0 2 1 2 2 -1 -0 -0 -1 0 -1 -2 -3 -4 -5 -6 -4 -3 -3 -3 -4 -5 -5 -5 -6 -6 -6 -7 -6 -7 -8 -11 -11 -10

GFSNW_850_dewp_288.txt.gz
Dewpoint
-5 -6 -5 -6 -5 -3 -0 -1 -2 -4 -4 2 1 0 2 2 1 3 4 5 5 5 4 5 5 4 2 0 -1 1 -0 2 4 2 -1 -2 -1 0 0 4 4 6 5 3
-5 -6 -5 -6 -5 -2 -0 -1 -1 -0 2 -0 -0 -1 -2 -3 -0 2 3 5 4 4 5 6 5 3 1 1 2 1 0 2 5 4 3 4 4 3 1 2 2 3 5 4
-5 -6 -5 -6 -5 -2 -0 -1 -1 -0 2 0 -2 -3 -3 -3 -6 -4 -1 1 1 3 6 4 6 5 5 3 3 3 0 3 4 6 4 3 6 5 3 3 5 4 4 2
-5 -6 -5 -6 -4 -2 -1 -1 -1 -2 0 -0 -1 -2 -1 -2 -3 -5 -6 -1 -1 1 5 4 6 5 3 3 3 5 3 6 6 5 4 3 3 3 6 6 4 4 3 2
-5 -5 -5 -5 -3 -1 -0 -1 -1 -1 -0 -0 -1 -0 -0 0 -1 -1 -2 -1 -2 -3 -1 2 4 5 5 4 4 5 5 7 6 6 6 6 7 6 5 5 6 5 6 6
-5 -5 -5 -4 -3 -1 -0 -1 -1 -1 -1 -2 -1 -1 -1 -1 -2 -2 -1 -1 -0 0 -2 -3 -2 0 2 3 5 6 7 8 9 9 7 9 10 8 7 6 6 6 8 6
-4 -4 -5 -5 -4 -1 -2 -1 -1 -0 -1 -1 -2 -3 -3 -2 -2 -1 -2 -2 -0 -1 -1 -0 -0 -0 -3 -3 3 4 7 8 7 8 8 10 4 3 5 6 5 6 5 4
-4 -4 -4 -4 -4 -2 -2 -1 -1 -1 -0 -1 -2 -2 -2 -2 -2 -2 -2 -2 -2 -1 0 2 2 1 1 -2 1 4 5 8 9 9 9 6 5 5 6 7 6 5 5 4
-4 -6 -5 -4 -3 -3 -2 -2 -1 -0 -1 -1 -3 -3 -3 -2 -2 -2 -2 -2 -2 -2 -1 2 4 3 0 1 4 3 4 5 8 8 9 8 4 3 4 4 8 4 4 4
-4 -6 -7 -5 -3 -3 -2 -2 -2 -0 -1 -1 -1 -1 -1 -2 -2 -1 -2 -2 -1 -1 3 4 4 4 1 2 2 4 6 6 7 8 9 7 5 3 4 9 7 2 3 3
-7 -8 -7 -7 -7 -5 -2 -2 -1 -1 -1 -1 -1 -1 -1 -2 -2 -1 -2 -1 -2 -0 2 4 4 4 2 4 4 6 4 7 7 6 8 9 3 3 6 4 1 0 1 3
-8 -10 -10 -10 -9 -7 -6 -4 -4 -2 -1 -2 -2 -1 -2 -1 -4 -2 -1 -1 -2 0 2 4 4 4 4 4 6 5 7 5 6 6 5 4 3 2 1 0 1 0 1 1
-8 -9 -11 -12 -12 -12 -10 -5 -3 -2 -2 -2 -1 -3 -8 -1 -3 -2 -0 -0 -0 0 0 2 3 6 4 4 4 5 4 4 6 6 5 4 3 2 2 2 2 -0 -1 -0
-9 -10 -10 -11 -11 -9 -10 -6 -4 -3 -2 -2 -3 -4 -3 -4 -2 -1 -1 -0 0 1 1 2 3 4 5 5 5 8 6 6 6 5 4 4 3 2 2 2 -0 -1 -1 -0
-12 -12 -12 -12 -11 -8 -7 -8 -6 -4 -2 -2 -1 -2 -3 -1 -1 -1 0 1 1 1 1 2 3 4 5 5 5 6 6 7 7 7 4 4 4 2 1 -1 -1 -1 -1 -0
-9 -9 -10 -10 -8 -8 -6 -4 -7 -8 -4 -1 -1 -2 -3 -2 -2 -2 -1 0 1 1 2 3 3 3 6 7 7 4 3 4 5 7 5 4 3 2 3 -0 -2 -1 -0 -1
-8 -7 -7 -7 -8 -6 -4 -5 -1 -1 -1 -1 -1 -0 -3 -4 -0 0 1 1 3 3 4 4 3 5 5 6 7 3 2 4 5 5 5 6 3 2 1 -1 -2 -2 -1 -1
-6 -6 -6 -6 -6 -5 -4 -8 -8 -7 -2 -2 -1 -0 0 -1 3 4 3 4 4 3 4 5 4 4 5 7 5 4 3 3 4 5 5 5 1 0 -0 -2 -1 -1 -1 -2
-6 -5 -5 -3 -3 -3 -4 -6 -3 -2 -1 -1 -1 0 0 1 2 2 4 4 2 3 4 5 6 5 5 6 5 4 2 3 3 3 2 1 1 0 -0 -1 -1 -1 -2 -2
-5 -4 -3 -4 -5 -6 -4 -2 -2 -1 -1 -1 -1 -2 0 -2 -2 1 0 2 2 3 3 5 5 5 5 5 5 4 3 3 3 2 2 2 1 0 -1 -1 -1 -1 -2 -1
-4 -3 -4 -5 -3 -2 -2 -1 -1 -1 -1 -1 -1 -2 -1 -1 0 1 1 2 2 4 4 5 4 5 3 5 5 5 3 3 3 2 2 1 1 -0 -1 -1 -1 -2 -2 -2
-5 -3 -4 -5 -4 -2 -2 -2 -2 -1 -1 -1 1 0 1 1 2 2 1 3 3 4 3 3 4 2 2 4 4 4 4 4 4 4 2 2 1 -1 -1 -0 2 1 -2 -3
-5 -3 -3 -2 -3 -2 -3 -5 -0 -1 -1 1 2 2 3 2 1 1 3 3 2 2 4 4 3 1 2 4 3 4 5 5 5 5 4 3 5 5 5 5 2 -2 -3 -4
-3 -3 -3 -3 -2 -5 -4 -3 -1 0 0 0 0 1 2 2 1 1 2 3 2 4 4 4 2 -0 2 3 3 4 5 5 5 6 5 5 6 6 4 -1 -3 -4 -5 -8
-3 -3 -4 -4 -4 -4 -3 -3 -1 -1 -1 -0 -0 1 -0 1 2 2 2 3 4 3 3 2 -0 -1 2 2 2 2 1 3 3 4 5 5 3 -1 -3 -4 -5 -8 -11 -12
-3 -3 -3 -4 -3 -3 -2 -1 -1 -0 -1 -1 0 1 2 2 2 3 2 2 2 1 -0 -2 -3 -2 -1 0 1 1 -0 0 -0 0 -0 -1 -3 -4 -4 -7 -10 -12 -12 -13
-3 -3 -4 -4 -3 -2 -2 -0 -1 -2 -1 0 0 2 3 1 2 0 0 1 -0 -2 -3 -3 -3 -2 -1 1 1 1 -0 -1 -1 -1 -2 -3 -4 -5 -8 -10 -11 -13 -13 -13